Time,TemperatureF,DewpointF,PressureIn,WindDirection,WindDirectionDegrees,WindSpeedMPH,WindSpeedGustMPH,Humidity,HourlyPrecipIn,Conditions,Clouds,dailyrainin,SoftwareType,DateUTC
2013-03-03 00:01:00,29.5,21.9,30.18,SSE,148,1.0,1.0,73,0.00,,,0.00,Wunderground v.1.15,2013-03-03 06:01:00,
2013-03-03 00:06:00,29.5,21.9,30.18,SSW,194,1.0,2.0,73,0.00,,,0.00,Wunderground v.1.15,2013-03-03 06:06:00,
2013-03-03 00:12:00,29.5,21.9,30.17,SE,129,0.0,2.0,73,0.00,,,0.00,Wunderground v.1.15,2013-03-03 06:12:00,
2013-03-03 00:18:00,29.4,21.5,30.17,SSE,151,1.0,3.0,72,0.00,,,0.00,Wunderground v.1.15,2013-03-03 06:18:00,
2013-03-03 00:24:00,29.4,21.8,30.17,SE,141,0.0,2.0,73,0.00,,,0.00,Wunderground v.1.15,2013-03-03 06:24:00,
2013-03-03 00:30:00,29.4,21.5,30.17,South,173,2.0,2.0,72,0.00,,,0.00,Wunderground v.1.15,2013-03-03 06:30:00,
2013-03-03 00:35:00,29.4,21.5,30.17,South,169,2.0,4.0,72,0.00,,,0.00,Wunderground v.1.15,2013-03-03 06:35:00,
2013-03-03 00:41:00,29.4,21.8,30.17,SSE,152,3.0,3.0,73,0.00,,,0.00,Wunderground v.1.15,2013-03-03 06:41:00,
2013-03-03 00:47:00,29.3,21.7,30.17,East,101,5.0,5.0,73,0.00,,,0.00,Wunderground v.1.15,2013-03-03 06:47:00,
2013-03-03 00:53:00,29.3,21.7,30.17,South,170,1.0,4.0,73,0.00,,,0.00,Wunderground v.1.15,2013-03-03 06:53:00,
2013-03-03 00:59:00,29.2,21.6,30.17,SSW,198,1.0,4.0,73,0.00,,,0.00,Wunderground v.1.15,2013-03-03 06:59:00,
2013-03-03 01:05:00,29.2,21.6,30.17,SSE,151,2.0,5.0,73,0.00,,,0.00,Wunderground v.1.15,2013-03-03 07:05:00,
2013-03-03 01:11:00,29.2,21.6,30.17,SSE,161,1.0,2.0,73,0.00,,,0.00,Wunderground v.1.15,2013-03-03 07:11:00,
2013-03-03 01:16:00,29.1,21.5,30.17,ESE,123,0.0,4.0,73,0.00,,,0.00,Wunderground v.1.15,2013-03-03 07:16:00,
2013-03-03 01:22:00,29.0,21.7,30.16,SSE,149,3.0,4.0,74,0.00,,,0.00,Wunderground v.1.15,2013-03-03 07:22:00,
2013-03-03 01:28:00,28.9,21.7,30.16,ESE,113,2.0,4.0,74,0.00,,,0.00,Wunderground v.1.15,2013-03-03 07:28:00,
2013-03-03 01:34:00,28.8,21.6,30.16,SSE,148,4.0,4.0,74,0.00,,,0.00,Wunderground v.1.15,2013-03-03 07:34:00,
2013-03-03 01:39:00,28.8,21.6,30.15,SSE,147,2.0,5.0,74,0.00,,,0.00,Wunderground v.1.15,2013-03-03 07:39:00,
2013-03-03 01:45:00,28.8,21.6,30.15,SE,134,5.0,5.0,74,0.00,,,0.00,Wunderground v.1.15,2013-03-03 07:45:00,
2013-03-03 01:51:00,28.7,21.8,30.15,SSE,162,2.0,5.0,75,0.00,,,0.00,Wunderground v.1.15,2013-03-03 07:51:00,
2013-03-03 01:57:00,28.7,21.8,30.15,SW,218,3.0,5.0,75,0.00,,,0.00,Wunderground v.1.15,2013-03-03 07:57:00,
2013-03-03 02:02:00,28.8,21.9,30.15,South,184,2.0,4.0,75,0.00,,,0.00,Wunderground v.1.15,2013-03-03 08:02:00,
2013-03-03 02:07:00,28.8,21.9,30.14,South,190,2.0,5.0,75,0.00,,,0.00,Wunderground v.1.15,2013-03-03 08:07:00,
2013-03-03 02:12:00,28.8,21.9,30.14,SW,231,4.0,4.0,75,0.00,,,0.00,Wunderground v.1.15,2013-03-03 08:12:00,
2013-03-03 02:17:00,28.7,21.8,30.14,SE,132,2.0,6.0,75,0.00,,,0.00,Wunderground v.1.15,2013-03-03 08:17:00,
2013-03-03 02:22:00,28.7,21.8,30.14,SE,140,5.0,6.0,75,0.00,,,0.00,Wunderground v.1.15,2013-03-03 08:22:00,
2013-03-03 02:27:00,28.7,21.8,30.13,SE,141,2.0,6.0,75,0.00,,,0.00,Wunderground v.1.15,2013-03-03 08:27:00,
2013-03-03 02:32:00,28.7,21.8,30.13,SSE,165,3.0,7.0,75,0.00,,,0.00,Wunderground v.1.15,2013-03-03 08:32:00,
2013-03-03 02:37:00,28.7,21.8,30.13,South,169,2.0,7.0,75,0.00,,,0.00,Wunderground v.1.15,2013-03-03 08:37:00,
2013-03-03 02:42:00,28.6,21.7,30.12,SSE,155,1.0,6.0,75,0.00,,,0.00,Wunderground v.1.15,2013-03-03 08:42:00,
2013-03-03 02:47:00,28.6,21.7,30.12,SSE,163,3.0,6.0,75,0.00,,,0.00,Wunderground v.1.15,2013-03-03 08:47:00,
2013-03-03 02:52:00,28.5,21.6,30.11,SSW,207,3.0,5.0,75,0.00,,,0.00,Wunderground v.1.15,2013-03-03 08:52:00,
2013-03-03 02:57:00,28.5,21.6,30.11,SSE,160,3.0,6.0,75,0.00,,,0.00,Wunderground v.1.15,2013-03-03 08:57:00,
2013-03-03 03:02:00,28.5,21.6,30.11,SE,136,1.0,4.0,75,0.00,,,0.00,Wunderground v.1.15,2013-03-03 09:02:00,
2013-03-03 03:07:00,28.5,21.6,30.11,SSE,167,1.0,5.0,75,0.00,,,0.00,Wunderground v.1.15,2013-03-03 09:07:00,
2013-03-03 03:12:00,28.4,21.8,30.11,South,182,2.0,5.0,76,0.00,,,0.00,Wunderground v.1.15,2013-03-03 09:12:00,
2013-03-03 03:17:00,28.4,21.8,30.11,South,176,2.0,5.0,76,0.00,,,0.00,Wunderground v.1.15,2013-03-03 09:17:00,
2013-03-03 03:22:00,28.4,21.8,30.11,SE,141,2.0,4.0,76,0.00,,,0.00,Wunderground v.1.15,2013-03-03 09:22:00,
2013-03-03 03:27:00,28.4,21.8,30.11,SE,138,2.0,6.0,76,0.00,,,0.00,Wunderground v.1.15,2013-03-03 09:27:00,
2013-03-03 03:32:00,28.4,21.8,30.11,SSE,149,4.0,5.0,76,0.00,,,0.00,Wunderground v.1.15,2013-03-03 09:32:00,
2013-03-03 03:37:00,28.3,21.7,30.11,SSW,196,3.0,6.0,76,0.00,,,0.00,Wunderground v.1.15,2013-03-03 09:37:00,
2013-03-03 03:42:00,28.3,21.7,30.10,SE,145,2.0,7.0,76,0.00,,,0.00,Wunderground v.1.15,2013-03-03 09:42:00,
2013-03-03 03:47:00,28.3,21.7,30.11,SSE,161,1.0,7.0,76,0.00,,,0.00,Wunderground v.1.15,2013-03-03 09:47:00,
2013-03-03 03:52:00,28.2,21.6,30.10,SSE,155,1.0,3.0,76,0.00,,,0.00,Wunderground v.1.15,2013-03-03 09:52:00,
2013-03-03 03:57:00,28.3,21.7,30.10,SE,127,2.0,5.0,76,0.00,,,0.00,Wunderground v.1.15,2013-03-03 09:57:00,
2013-03-03 04:02:00,28.3,21.7,30.10,SSW,207,2.0,3.0,76,0.00,,,0.00,Wunderground v.1.15,2013-03-03 10:02:00,
2013-03-03 04:07:00,28.3,21.7,30.10,SSE,151,4.0,6.0,76,0.00,,,0.00,Wunderground v.1.15,2013-03-03 10:07:00,
2013-03-03 04:12:00,28.4,21.8,30.10,SE,124,2.0,4.0,76,0.00,,,0.00,Wunderground v.1.15,2013-03-03 10:12:00,
2013-03-03 04:17:00,28.5,21.9,30.09,SSE,160,3.0,8.0,76,0.00,,,0.00,Wunderground v.1.15,2013-03-03 10:17:00,
2013-03-03 04:22:00,28.5,21.6,30.09,SE,143,2.0,6.0,75,0.00,,,0.00,Wunderground v.1.15,2013-03-03 10:22:00,
2013-03-03 04:27:00,28.5,21.6,30.09,SSE,150,4.0,6.0,75,0.00,,,0.00,Wunderground v.1.15,2013-03-03 10:27:00,
2013-03-03 04:32:00,28.5,21.6,30.09,SSE,153,2.0,5.0,75,0.00,,,0.00,Wunderground v.1.15,2013-03-03 10:32:00,
2013-03-03 04:37:00,28.5,21.6,30.08,SE,126,4.0,5.0,75,0.00,,,0.00,Wunderground v.1.15,2013-03-03 10:37:00,
2013-03-03 04:42:00,28.5,21.6,30.08,SE,145,5.0,5.0,75,0.00,,,0.00,Wunderground v.1.15,2013-03-03 10:42:00,
2013-03-03 04:47:00,28.5,21.6,30.07,South,183,3.0,8.0,75,0.00,,,0.00,Wunderground v.1.15,2013-03-03 10:47:00,
2013-03-03 04:52:00,28.5,21.6,30.07,South,190,3.0,9.0,75,0.00,,,0.00,Wunderground v.1.15,2013-03-03 10:52:00,
2013-03-03 04:57:00,28.5,21.6,30.07,SSE,162,3.0,9.0,75,0.00,,,0.00,Wunderground v.1.15,2013-03-03 10:57:00,
2013-03-03 05:02:00,28.5,21.6,30.07,SE,140,4.0,9.0,75,0.00,,,0.00,Wunderground v.1.15,2013-03-03 11:02:00,
2013-03-03 05:07:00,28.5,21.6,30.07,SSE,167,3.0,9.0,75,0.00,,,0.00,Wunderground v.1.15,2013-03-03 11:07:00,
2013-03-03 05:12:00,28.5,21.6,30.07,SSE,154,3.0,5.0,75,0.00,,,0.00,Wunderground v.1.15,2013-03-03 11:12:00,
2013-03-03 05:18:00,28.6,21.7,30.07,SW,233,4.0,6.0,75,0.00,,,0.00,Wunderground v.1.15,2013-03-03 11:18:00,
2013-03-03 05:23:00,28.6,21.7,30.06,SSE,167,2.0,7.0,75,0.00,,,0.00,Wunderground v.1.15,2013-03-03 11:23:00,
2013-03-03 05:28:00,28.7,21.8,30.07,South,187,5.0,7.0,75,0.00,,,0.00,Wunderground v.1.15,2013-03-03 11:28:00,
2013-03-03 05:33:00,28.7,21.8,30.07,SE,136,4.0,8.0,75,0.00,,,0.00,Wunderground v.1.15,2013-03-03 11:33:00,
2013-03-03 05:38:00,28.6,21.7,30.07,SSE,151,2.0,8.0,75,0.00,,,0.00,Wunderground v.1.15,2013-03-03 11:38:00,
2013-03-03 05:43:00,28.6,21.7,30.06,SSE,167,5.0,10.0,75,0.00,,,0.00,Wunderground v.1.15,2013-03-03 11:43:00,
2013-03-03 05:48:00,28.5,21.6,30.06,SE,127,5.0,10.0,75,0.00,,,0.00,Wunderground v.1.15,2013-03-03 11:48:00,
2013-03-03 05:53:00,28.5,21.9,30.06,South,173,3.0,5.0,76,0.00,,,0.00,Wunderground v.1.15,2013-03-03 11:53:00,
2013-03-03 05:58:00,28.5,21.9,30.06,South,173,2.0,8.0,76,0.00,,,0.00,Wunderground v.1.15,2013-03-03 11:58:00,
2013-03-03 06:03:00,28.5,21.9,30.06,SSE,158,6.0,7.0,76,0.00,,,0.00,Wunderground v.1.15,2013-03-03 12:03:00,
2013-03-03 06:08:00,28.5,21.9,30.06,South,171,6.0,7.0,76,0.00,,,0.00,Wunderground v.1.15,2013-03-03 12:08:00,
2013-03-03 06:13:00,28.6,22.0,30.05,South,190,3.0,7.0,76,0.00,,,0.00,Wunderground v.1.15,2013-03-03 12:13:00,
2013-03-03 06:18:00,28.7,21.8,30.05,SSE,161,5.0,12.0,75,0.00,,,0.00,Wunderground v.1.15,2013-03-03 12:18:00,
2013-03-03 06:23:00,28.8,21.9,30.05,South,173,5.0,8.0,75,0.00,,,0.00,Wunderground v.1.15,2013-03-03 12:23:00,
2013-03-03 06:28:00,28.8,21.9,30.04,SSE,147,4.0,8.0,75,0.00,,,0.00,Wunderground v.1.15,2013-03-03 12:28:00,
2013-03-03 06:33:00,28.9,22.0,30.04,SSE,158,4.0,9.0,75,0.00,,,0.00,Wunderground v.1.15,2013-03-03 12:33:00,
2013-03-03 06:38:00,29.0,22.1,30.04,SSE,155,4.0,9.0,75,0.00,,,0.00,Wunderground v.1.15,2013-03-03 12:38:00,
2013-03-03 06:43:00,29.0,22.1,30.04,SSE,160,3.0,9.0,75,0.00,,,0.00,Wunderground v.1.15,2013-03-03 12:43:00,
2013-03-03 06:48:00,29.0,21.7,30.04,SSW,207,6.0,9.0,74,0.00,,,0.00,Wunderground v.1.15,2013-03-03 12:48:00,
2013-03-03 06:53:00,29.0,21.7,30.04,SE,136,4.0,8.0,74,0.00,,,0.00,Wunderground v.1.15,2013-03-03 12:53:00,
2013-03-03 06:58:00,29.0,21.7,30.04,SSE,157,4.0,9.0,74,0.00,,,0.00,Wunderground v.1.15,2013-03-03 12:58:00,
2013-03-03 07:03:00,29.0,21.7,30.04,SSW,209,3.0,8.0,74,0.00,,,0.00,Wunderground v.1.15,2013-03-03 13:03:00,
2013-03-03 07:08:00,29.0,21.7,30.03,SSE,160,5.0,10.0,74,0.00,,,0.00,Wunderground v.1.15,2013-03-03 13:08:00,
2013-03-03 07:13:00,29.0,21.7,30.04,South,171,3.0,8.0,74,0.00,,,0.00,Wunderground v.1.15,2013-03-03 13:13:00,
2013-03-03 07:18:00,29.0,21.7,30.04,SE,145,1.0,8.0,74,0.00,,,0.00,Wunderground v.1.15,2013-03-03 13:18:00,
2013-03-03 07:23:00,29.1,21.8,30.04,SE,136,5.0,6.0,74,0.00,,,0.00,Wunderground v.1.15,2013-03-03 13:23:00,
2013-03-03 07:28:00,29.2,21.9,30.04,South,169,3.0,7.0,74,0.00,,,0.00,Wunderground v.1.15,2013-03-03 13:28:00,
2013-03-03 07:33:00,29.4,22.1,30.04,SE,127,2.0,8.0,74,0.00,,,0.00,Wunderground v.1.15,2013-03-03 13:33:00,
2013-03-03 07:38:00,29.7,22.1,30.03,SSE,157,4.0,8.0,73,0.00,,,0.00,Wunderground v.1.15,2013-03-03 13:38:00,
2013-03-03 07:43:00,30.2,22.3,30.03,SW,214,4.0,7.0,72,0.00,,,0.00,Wunderground v.1.15,2013-03-03 13:43:00,
2013-03-03 07:48:00,30.5,22.2,30.03,South,186,4.0,10.0,71,0.00,,,0.00,Wunderground v.1.15,2013-03-03 13:48:00,
2013-03-03 07:53:00,30.8,22.5,30.03,SE,142,3.0,7.0,71,0.00,,,0.00,Wunderground v.1.15,2013-03-03 13:53:00,
2013-03-03 07:58:00,31.0,22.7,30.03,South,189,6.0,9.0,71,0.00,,,0.00,Wunderground v.1.15,2013-03-03 13:58:00,
2013-03-03 08:03:00,31.2,22.5,30.03,SSE,165,2.0,7.0,70,0.00,,,0.00,Wunderground v.1.15,2013-03-03 14:03:00,
2013-03-03 08:08:00,31.5,22.8,30.03,SSE,162,2.0,8.0,70,0.00,,,0.00,Wunderground v.1.15,2013-03-03 14:08:00,
2013-03-03 08:13:00,31.7,23.0,30.03,SSE,149,2.0,9.0,70,0.00,,,0.00,Wunderground v.1.15,2013-03-03 14:13:00,
2013-03-03 08:18:00,31.8,22.8,30.03,SSE,160,3.0,9.0,69,0.00,,,0.00,Wunderground v.1.15,2013-03-03 14:18:00,
2013-03-03 08:23:00,32.0,23.3,30.03,SSE,147,3.0,6.0,70,0.00,,,0.00,Wunderground v.1.15,2013-03-03 14:23:00,
2013-03-03 08:28:00,32.2,23.2,30.03,South,169,2.0,8.0,69,0.00,,,0.00,Wunderground v.1.15,2013-03-03 14:28:00,
2013-03-03 08:33:00,32.5,23.1,30.02,SSW,200,7.0,8.0,68,0.00,,,0.00,Wunderground v.1.15,2013-03-03 14:33:00,
2013-03-03 08:38:00,32.8,23.4,30.02,SE,143,5.0,9.0,68,0.00,,,0.00,Wunderground v.1.15,2013-03-03 14:38:00,
2013-03-03 08:43:00,33.2,23.8,30.02,SSE,165,1.0,7.0,68,0.00,,,0.00,Wunderground v.1.15,2013-03-03 14:43:00,
2013-03-03 08:48:00,33.5,23.7,30.02,SE,139,5.0,13.0,67,0.00,,,0.00,Wunderground v.1.15,2013-03-03 14:48:00,
2013-03-03 08:53:00,33.8,23.6,30.02,SSE,158,6.0,8.0,66,0.00,,,0.00,Wunderground v.1.15,2013-03-03 14:53:00,
2013-03-03 08:58:00,34.0,23.8,30.02,SSE,161,4.0,10.0,66,0.00,,,0.00,Wunderground v.1.15,2013-03-03 14:58:00,
2013-03-03 09:03:00,34.3,24.1,30.01,SW,215,2.0,10.0,66,0.00,,,0.00,Wunderground v.1.15,2013-03-03 15:03:00,
2013-03-03 09:08:00,34.8,24.2,30.02,South,174,5.0,10.0,65,0.00,,,0.00,Wunderground v.1.15,2013-03-03 15:08:00,
2013-03-03 09:13:00,35.1,24.1,30.01,South,174,5.0,9.0,64,0.00,,,0.00,Wunderground v.1.15,2013-03-03 15:13:00,
2013-03-03 09:18:00,35.2,24.2,30.01,SSE,162,8.0,10.0,64,0.00,,,0.00,Wunderground v.1.15,2013-03-03 15:18:00,
2013-03-03 09:23:00,35.2,24.2,30.01,SSE,163,4.0,7.0,64,0.00,,,0.00,Wunderground v.1.15,2013-03-03 15:23:00,
2013-03-03 09:28:00,35.5,24.1,30.00,SSE,165,5.0,12.0,63,0.00,,,0.00,Wunderground v.1.15,2013-03-03 15:28:00,
2013-03-03 09:33:00,35.8,24.4,30.00,SE,133,4.0,8.0,63,0.00,,,0.00,Wunderground v.1.15,2013-03-03 15:33:00,
2013-03-03 09:38:00,36.0,24.2,30.00,SE,142,5.0,11.0,62,0.00,,,0.00,Wunderground v.1.15,2013-03-03 15:38:00,
2013-03-03 09:43:00,36.3,24.5,30.00,South,173,3.0,10.0,62,0.00,,,0.00,Wunderground v.1.15,2013-03-03 15:43:00,
2013-03-03 09:48:00,36.7,24.5,29.99,SSE,167,3.0,10.0,61,0.00,,,0.00,Wunderground v.1.15,2013-03-03 15:48:00,
2013-03-03 09:53:00,36.9,25.1,29.99,SE,146,3.0,7.0,62,0.00,,,0.00,Wunderground v.1.15,2013-03-03 15:53:00,
2013-03-03 09:58:00,37.2,25.0,29.99,SSE,158,5.0,8.0,61,0.00,,,0.00,Wunderground v.1.15,2013-03-03 15:58:00,
2013-03-03 10:03:00,37.6,25.4,29.99,SSE,162,2.0,7.0,61,0.00,,,0.00,Wunderground v.1.15,2013-03-03 16:03:00,
2013-03-03 10:08:00,37.8,25.1,29.99,South,180,2.0,8.0,60,0.00,,,0.00,Wunderground v.1.15,2013-03-03 16:08:00,
2013-03-03 10:13:00,38.2,25.5,29.99,South,173,4.0,8.0,60,0.00,,,0.00,Wunderground v.1.15,2013-03-03 16:13:00,
2013-03-03 10:18:00,38.3,25.2,29.99,SE,142,5.0,10.0,59,0.00,,,0.00,Wunderground v.1.15,2013-03-03 16:18:00,
2013-03-03 10:23:00,38.3,26.0,29.98,SSE,165,2.0,7.0,61,0.00,,,0.00,Wunderground v.1.15,2013-03-03 16:23:00,
2013-03-03 10:28:00,38.4,25.7,29.98,South,170,6.0,9.0,60,0.00,,,0.00,Wunderground v.1.15,2013-03-03 16:28:00,
2013-03-03 10:33:00,38.9,26.2,29.98,South,178,2.0,6.0,60,0.00,,,0.00,Wunderground v.1.15,2013-03-03 16:33:00,
2013-03-03 10:38:00,39.8,26.6,29.98,South,171,3.0,9.0,59,0.00,,,0.00,Wunderground v.1.15,2013-03-03 16:38:00,
2013-03-03 10:43:00,40.2,26.6,29.98,SE,137,5.0,5.0,58,0.00,,,0.00,Wunderground v.1.15,2013-03-03 16:43:00,
2013-03-03 10:48:00,40.6,27.0,29.98,ESE,109,3.0,6.0,58,0.00,,,0.00,Wunderground v.1.15,2013-03-03 16:48:00,
2013-03-03 10:53:00,41.1,26.6,29.98,South,173,6.0,8.0,56,0.00,,,0.00,Wunderground v.1.15,2013-03-03 16:53:00,
2013-03-03 10:58:00,40.8,26.7,29.98,SE,144,3.0,10.0,57,0.00,,,0.00,Wunderground v.1.15,2013-03-03 16:58:00,
2013-03-03 11:03:00,40.5,26.4,29.97,South,187,3.0,11.0,57,0.00,,,0.00,Wunderground v.1.15,2013-03-03 17:03:00,
2013-03-03 11:08:00,40.7,27.5,29.97,SSE,147,2.0,11.0,59,0.00,,,0.00,Wunderground v.1.15,2013-03-03 17:08:00,
2013-03-03 11:13:00,40.9,27.2,29.97,South,169,4.0,6.0,58,0.00,,,0.00,Wunderground v.1.15,2013-03-03 17:13:00,
2013-03-03 11:18:00,41.2,27.5,29.96,SSE,153,2.0,7.0,58,0.00,,,0.00,Wunderground v.1.15,2013-03-03 17:18:00,
2013-03-03 11:23:00,41.6,27.5,29.96,SSW,207,4.0,9.0,57,0.00,,,0.00,Wunderground v.1.15,2013-03-03 17:23:00,
2013-03-03 11:28:00,41.7,27.6,29.96,SE,131,4.0,9.0,57,0.00,,,0.00,Wunderground v.1.15,2013-03-03 17:28:00,
2013-03-03 11:33:00,41.3,27.6,29.96,SE,130,5.0,8.0,58,0.00,,,0.00,Wunderground v.1.15,2013-03-03 17:33:00,
2013-03-03 11:38:00,41.5,27.8,29.96,WSW,240,5.0,8.0,58,0.00,,,0.00,Wunderground v.1.15,2013-03-03 17:38:00,
2013-03-03 11:43:00,42.2,28.0,29.95,SE,128,3.0,7.0,57,0.00,,,0.00,Wunderground v.1.15,2013-03-03 17:43:00,
2013-03-03 11:48:00,42.3,28.1,29.95,SE,143,4.0,8.0,57,0.00,,,0.00,Wunderground v.1.15,2013-03-03 17:48:00,
2013-03-03 11:53:00,41.9,27.8,29.95,SSE,162,4.0,8.0,57,0.00,,,0.00,Wunderground v.1.15,2013-03-03 17:53:00,
2013-03-03 11:58:00,41.8,27.7,29.94,SE,136,6.0,9.0,57,0.00,,,0.00,Wunderground v.1.15,2013-03-03 17:58:00,
2013-03-03 12:03:00,41.9,28.2,29.95,South,180,5.0,9.0,58,0.00,,,0.00,Wunderground v.1.15,2013-03-03 18:03:00,
2013-03-03 12:08:00,42.3,28.6,29.94,SSE,156,5.0,10.0,58,0.00,,,0.00,Wunderground v.1.15,2013-03-03 18:08:00,
2013-03-03 12:13:00,42.7,28.5,29.94,SSE,162,7.0,7.0,57,0.00,,,0.00,Wunderground v.1.15,2013-03-03 18:13:00,
2013-03-03 12:18:00,42.8,28.6,29.93,South,179,4.0,9.0,57,0.00,,,0.00,Wunderground v.1.15,2013-03-03 18:18:00,
2013-03-03 12:23:00,43.1,28.9,29.93,SSE,164,4.0,7.0,57,0.00,,,0.00,Wunderground v.1.15,2013-03-03 18:23:00,
2013-03-03 12:28:00,42.9,28.7,29.93,SW,220,3.0,7.0,57,0.00,,,0.00,Wunderground v.1.15,2013-03-03 18:28:00,
2013-03-03 12:33:00,43.1,28.9,29.92,SSE,159,2.0,7.0,57,0.00,,,0.00,Wunderground v.1.15,2013-03-03 18:33:00,
2013-03-03 12:38:00,42.9,28.7,29.92,South,173,4.0,12.0,57,0.00,,,0.00,Wunderground v.1.15,2013-03-03 18:38:00,
2013-03-03 12:43:00,42.6,28.8,29.92,SSW,206,2.0,8.0,58,0.00,,,0.00,Wunderground v.1.15,2013-03-03 18:43:00,
2013-03-03 12:48:00,42.7,28.9,29.92,SSE,152,2.0,8.0,58,0.00,,,0.00,Wunderground v.1.15,2013-03-03 18:48:00,
2013-03-03 12:53:00,42.6,28.8,29.91,East,94,5.0,12.0,58,0.00,,,0.00,Wunderground v.1.15,2013-03-03 18:53:00,
2013-03-03 12:58:00,42.9,28.7,29.91,South,169,2.0,12.0,57,0.00,,,0.00,Wunderground v.1.15,2013-03-03 18:58:00,
2013-03-03 13:03:00,43.1,28.9,29.90,SSE,166,2.0,8.0,57,0.00,,,0.00,Wunderground v.1.15,2013-03-03 19:03:00,
2013-03-03 13:08:00,43.2,29.0,29.90,SE,130,11.0,11.0,57,0.00,,,0.00,Wunderground v.1.15,2013-03-03 19:08:00,
2013-03-03 13:13:00,43.1,28.9,29.89,SE,130,4.0,10.0,57,0.00,,,0.00,Wunderground v.1.15,2013-03-03 19:13:00,
2013-03-03 13:18:00,43.1,28.9,29.89,SSE,165,3.0,11.0,57,0.00,,,0.00,Wunderground v.1.15,2013-03-03 19:18:00,
2013-03-03 13:23:00,43.1,28.9,29.89,SW,228,4.0,10.0,57,0.00,,,0.00,Wunderground v.1.15,2013-03-03 19:23:00,
2013-03-03 13:28:00,43.4,29.2,29.89,South,176,3.0,10.0,57,0.00,,,0.00,Wunderground v.1.15,2013-03-03 19:28:00,
2013-03-03 13:33:00,43.6,29.4,29.88,SSW,193,6.0,8.0,57,0.00,,,0.00,Wunderground v.1.15,2013-03-03 19:33:00,
2013-03-03 13:38:00,43.6,28.9,29.88,SE,135,5.0,10.0,56,0.00,,,0.00,Wunderground v.1.15,2013-03-03 19:38:00,
2013-03-03 13:43:00,43.7,29.5,29.88,SE,131,9.0,12.0,57,0.00,,,0.00,Wunderground v.1.15,2013-03-03 19:43:00,
2013-03-03 13:48:00,43.6,28.9,29.88,SSE,159,3.0,12.0,56,0.00,,,0.00,Wunderground v.1.15,2013-03-03 19:48:00,
2013-03-03 13:54:00,43.9,29.2,29.88,East,90,6.0,11.0,56,0.00,,,0.00,Wunderground v.1.15,2013-03-03 19:54:00,
2013-03-03 13:59:00,44.0,29.3,29.88,SSE,153,5.0,11.0,56,0.00,,,0.00,Wunderground v.1.15,2013-03-03 19:59:00,
2013-03-03 14:04:00,43.8,29.1,29.87,SE,126,2.0,9.0,56,0.00,,,0.00,Wunderground v.1.15,2013-03-03 20:04:00,
2013-03-03 14:09:00,44.1,29.4,29.87,SSE,155,2.0,9.0,56,0.00,,,0.00,Wunderground v.1.15,2013-03-03 20:09:00,
2013-03-03 14:14:00,44.3,29.1,29.87,SSE,155,4.0,10.0,55,0.00,,,0.00,Wunderground v.1.15,2013-03-03 20:14:00,
2013-03-03 14:19:00,44.2,29.0,29.87,SE,144,3.0,10.0,55,0.00,,,0.00,Wunderground v.1.15,2013-03-03 20:19:00,
2013-03-03 14:24:00,44.5,29.3,29.87,SE,130,4.0,7.0,55,0.00,,,0.00,Wunderground v.1.15,2013-03-03 20:24:00,
2013-03-03 14:29:00,44.6,29.0,29.86,ESE,113,7.0,9.0,54,0.00,,,0.00,Wunderground v.1.15,2013-03-03 20:29:00,
2013-03-03 14:34:00,44.2,29.0,29.86,South,176,5.0,8.0,55,0.00,,,0.00,Wunderground v.1.15,2013-03-03 20:34:00,
2013-03-03 14:39:00,44.3,29.1,29.86,SSE,155,9.0,9.0,55,0.00,,,0.00,Wunderground v.1.15,2013-03-03 20:39:00,
2013-03-03 14:44:00,44.4,29.7,29.86,SSE,164,3.0,7.0,56,0.00,,,0.00,Wunderground v.1.15,2013-03-03 20:44:00,
2013-03-03 14:49:00,44.5,29.3,29.85,SSE,168,3.0,9.0,55,0.00,,,0.00,Wunderground v.1.15,2013-03-03 20:49:00,
2013-03-03 14:54:00,44.7,29.1,29.85,SE,146,8.0,11.0,54,0.00,,,0.00,Wunderground v.1.15,2013-03-03 20:54:00,
2013-03-03 14:58:00,44.6,29.4,29.85,ESE,118,4.0,11.0,55,0.00,,,0.00,Wunderground v.1.15,2013-03-03 20:58:00,
2013-03-03 15:04:00,44.6,29.4,29.85,SSE,161,4.0,8.0,55,0.00,,,0.00,Wunderground v.1.15,2013-03-03 21:04:00,
2013-03-03 15:09:00,44.9,29.7,29.85,ESE,103,3.0,8.0,55,0.00,,,0.00,Wunderground v.1.15,2013-03-03 21:09:00,
2013-03-03 15:14:00,44.8,29.6,29.84,SSE,159,4.0,7.0,55,0.00,,,0.00,Wunderground v.1.15,2013-03-03 21:14:00,
2013-03-03 15:19:00,44.9,29.7,29.85,SE,124,4.0,7.0,55,0.00,,,0.00,Wunderground v.1.15,2013-03-03 21:19:00,
2013-03-03 15:24:00,45.0,30.2,29.84,SSE,156,2.0,5.0,56,0.00,,,0.00,Wunderground v.1.15,2013-03-03 21:24:00,
2013-03-03 15:29:00,45.2,30.0,29.84,NW,321,1.0,5.0,55,0.00,,,0.00,Wunderground v.1.15,2013-03-03 21:29:00,
2013-03-03 15:34:00,45.5,30.3,29.84,South,169,1.0,5.0,55,0.00,,,0.00,Wunderground v.1.15,2013-03-03 21:34:00,
2013-03-03 15:39:00,45.6,29.9,29.84,SSE,148,2.0,7.0,54,0.00,,,0.00,Wunderground v.1.15,2013-03-03 21:39:00,
2013-03-03 15:44:00,45.7,30.0,29.84,SE,140,2.0,9.0,54,0.00,,,0.00,Wunderground v.1.15,2013-03-03 21:44:00,
2013-03-03 15:49:00,45.4,29.7,29.83,SSE,155,8.0,9.0,54,0.00,,,0.00,Wunderground v.1.15,2013-03-03 21:49:00,
2013-03-03 15:54:00,45.1,29.4,29.83,SSE,150,5.0,10.0,54,0.00,,,0.00,Wunderground v.1.15,2013-03-03 21:54:00,
2013-03-03 15:59:00,45.2,30.0,29.83,SE,127,3.0,10.0,55,0.00,,,0.00,Wunderground v.1.15,2013-03-03 21:59:00,
2013-03-03 16:04:00,45.2,30.0,29.83,SSE,165,5.0,8.0,55,0.00,,,0.00,Wunderground v.1.15,2013-03-03 22:04:00,
2013-03-03 16:09:00,45.3,30.1,29.83,SE,134,2.0,8.0,55,0.00,,,0.00,Wunderground v.1.15,2013-03-03 22:09:00,
2013-03-03 16:14:00,45.2,30.0,29.83,South,171,2.0,7.0,55,0.00,,,0.00,Wunderground v.1.15,2013-03-03 22:14:00,
2013-03-03 16:19:00,45.1,29.9,29.82,SE,141,6.0,8.0,55,0.00,,,0.00,Wunderground v.1.15,2013-03-03 22:19:00,
2013-03-03 16:24:00,45.0,30.2,29.82,SSE,160,3.0,7.0,56,0.00,,,0.00,Wunderground v.1.15,2013-03-03 22:24:00,
2013-03-03 16:29:00,45.0,30.2,29.82,NE,36,2.0,8.0,56,0.00,,,0.00,Wunderground v.1.15,2013-03-03 22:29:00,
2013-03-03 16:34:00,44.9,30.1,29.83,SE,134,4.0,7.0,56,0.00,,,0.00,Wunderground v.1.15,2013-03-03 22:34:00,
2013-03-03 16:39:00,44.7,30.0,29.82,SSE,155,4.0,9.0,56,0.00,,,0.00,Wunderground v.1.15,2013-03-03 22:39:00,
2013-03-03 16:44:00,44.7,30.4,29.82,ESE,109,4.0,10.0,57,0.00,,,0.00,Wunderground v.1.15,2013-03-03 22:44:00,
2013-03-03 16:49:00,44.7,30.4,29.82,East,101,1.0,10.0,57,0.00,,,0.00,Wunderground v.1.15,2013-03-03 22:49:00,
2013-03-03 16:54:00,44.7,30.4,29.81,ENE,77,3.0,7.0,57,0.00,,,0.00,Wunderground v.1.15,2013-03-03 22:54:00,
2013-03-03 16:59:00,44.7,30.4,29.81,SE,143,2.0,8.0,57,0.00,,,0.00,Wunderground v.1.15,2013-03-03 22:59:00,
2013-03-03 17:04:00,44.6,30.7,29.81,East,79,2.0,8.0,58,0.00,,,0.00,Wunderground v.1.15,2013-03-03 23:04:00,
2013-03-03 17:09:00,44.6,30.7,29.81,ENE,73,2.0,8.0,58,0.00,,,0.00,Wunderground v.1.15,2013-03-03 23:09:00,
2013-03-03 17:14:00,44.5,30.6,29.81,SE,134,4.0,4.0,58,0.00,,,0.00,Wunderground v.1.15,2013-03-03 23:14:00,
2013-03-03 17:19:00,44.4,30.5,29.80,ESE,104,3.0,9.0,58,0.00,,,0.00,Wunderground v.1.15,2013-03-03 23:19:00,
2013-03-03 17:24:00,44.3,30.4,29.80,ENE,69,2.0,10.0,58,0.00,,,0.00,Wunderground v.1.15,2013-03-03 23:24:00,
2013-03-03 17:29:00,44.3,30.4,29.80,ENE,78,2.0,10.0,58,0.00,,,0.00,Wunderground v.1.15,2013-03-03 23:29:00,
2013-03-03 17:34:00,44.3,30.9,29.79,East,90,3.0,7.0,59,0.00,,,0.00,Wunderground v.1.15,2013-03-03 23:34:00,
2013-03-03 17:39:00,44.3,30.9,29.79,South,184,3.0,10.0,59,0.00,,,0.00,Wunderground v.1.15,2013-03-03 23:39:00,
2013-03-03 17:44:00,44.1,30.7,29.79,East,80,3.0,7.0,59,0.00,,,0.00,Wunderground v.1.15,2013-03-03 23:44:00,
2013-03-03 17:49:00,44.0,30.6,29.79,ENE,59,5.0,10.0,59,0.00,,,0.00,Wunderground v.1.15,2013-03-03 23:49:00,
2013-03-03 17:54:00,43.9,30.5,29.79,SE,142,5.0,8.0,59,0.00,,,0.00,Wunderground v.1.15,2013-03-03 23:54:00,
2013-03-03 17:59:00,43.7,30.7,29.79,East,79,2.0,10.0,60,0.00,,,0.00,Wunderground v.1.15,2013-03-03 23:59:00,
2013-03-03 18:04:00,43.4,30.4,29.79,SSE,155,4.0,5.0,60,0.00,,,0.00,Wunderground v.1.15,2013-03-04 00:04:00,
2013-03-03 18:09:00,43.2,30.2,29.79,SE,128,2.0,9.0,60,0.00,,,0.00,Wunderground v.1.15,2013-03-04 00:09:00,
2013-03-03 18:14:00,43.0,30.1,29.79,East,87,2.0,10.0,60,0.00,,,0.00,Wunderground v.1.15,2013-03-04 00:14:00,
2013-03-03 18:19:00,42.8,29.9,29.79,East,100,2.0,13.0,60,0.00,,,0.00,Wunderground v.1.15,2013-03-04 00:19:00,
2013-03-03 18:24:00,42.6,30.1,29.79,ENE,58,2.0,10.0,61,0.00,,,0.00,Wunderground v.1.15,2013-03-04 00:24:00,
2013-03-03 18:29:00,42.4,29.9,29.79,ENE,78,5.0,13.0,61,0.00,,,0.00,Wunderground v.1.15,2013-03-04 00:29:00,
2013-03-03 18:34:00,42.2,29.7,29.80,East,96,5.0,10.0,61,0.00,,,0.00,Wunderground v.1.15,2013-03-04 00:34:00,
2013-03-03 18:39:00,42.0,29.9,29.80,NE,45,4.0,11.0,62,0.00,,,0.00,Wunderground v.1.15,2013-03-04 00:39:00,
2013-03-03 18:44:00,41.9,29.8,29.80,ENE,70,5.0,9.0,62,0.00,,,0.00,Wunderground v.1.15,2013-03-04 00:44:00,
2013-03-03 18:49:00,41.7,30.0,29.81,East,82,7.0,9.0,63,0.00,,,0.00,Wunderground v.1.15,2013-03-04 00:49:00,
2013-03-03 18:54:00,41.6,29.9,29.81,East,85,3.0,8.0,63,0.00,,,0.00,Wunderground v.1.15,2013-03-04 00:54:00,
2013-03-03 18:59:00,41.4,29.7,29.80,ENE,77,3.0,8.0,63,0.00,,,0.00,Wunderground v.1.15,2013-03-04 00:59:00,
2013-03-03 19:04:00,41.2,29.9,29.80,ENE,77,2.0,6.0,64,0.00,,,0.00,Wunderground v.1.15,2013-03-04 01:04:00,
2013-03-03 19:09:00,41.0,29.7,29.80,ENE,61,3.0,7.0,64,0.00,,,0.00,Wunderground v.1.15,2013-03-04 01:09:00,
2013-03-03 19:14:00,40.8,29.9,29.80,ENE,60,3.0,6.0,65,0.00,,,0.00,Wunderground v.1.15,2013-03-04 01:14:00,
2013-03-03 19:19:00,40.5,29.7,29.79,East,98,5.0,8.0,65,0.00,,,0.00,Wunderground v.1.15,2013-03-04 01:19:00,
2013-03-03 19:24:00,40.4,29.9,29.79,ESE,111,2.0,8.0,66,0.00,,,0.00,Wunderground v.1.15,2013-03-04 01:24:00,
2013-03-03 19:29:00,40.2,29.7,29.79,SSE,165,3.0,9.0,66,0.00,,,0.00,Wunderground v.1.15,2013-03-04 01:29:00,
2013-03-03 19:34:00,40.1,29.6,29.80,SE,126,3.0,10.0,66,0.00,,,0.00,Wunderground v.1.15,2013-03-04 01:34:00,
2013-03-03 19:39:00,40.0,29.9,29.79,SE,128,2.0,10.0,67,0.00,,,0.00,Wunderground v.1.15,2013-03-04 01:39:00,
2013-03-03 19:44:00,39.9,29.8,29.79,East,93,5.0,7.0,67,0.00,,,0.00,Wunderground v.1.15,2013-03-04 01:44:00,
2013-03-03 19:49:00,39.9,29.8,29.79,SSE,152,6.0,8.0,67,0.00,,,0.00,Wunderground v.1.15,2013-03-04 01:49:00,
2013-03-03 19:54:00,39.8,29.7,29.80,East,88,2.0,7.0,67,0.00,,,0.00,Wunderground v.1.15,2013-03-04 01:54:00,
2013-03-03 19:59:00,39.7,30.0,29.80,SE,129,2.0,7.0,68,0.00,,,0.00,Wunderground v.1.15,2013-03-04 01:59:00,
2013-03-03 20:04:00,39.6,29.9,29.80,East,90,3.0,5.0,68,0.00,,,0.00,Wunderground v.1.15,2013-03-04 02:04:00,
2013-03-03 20:09:00,39.6,29.9,29.80,ESE,123,2.0,6.0,68,0.00,,,0.00,Wunderground v.1.15,2013-03-04 02:09:00,
2013-03-03 20:14:00,39.6,29.9,29.80,ENE,59,3.0,4.0,68,0.00,,,0.00,Wunderground v.1.15,2013-03-04 02:14:00,
2013-03-03 20:19:00,39.6,29.9,29.79,ENE,61,3.0,6.0,68,0.00,,,0.00,Wunderground v.1.15,2013-03-04 02:19:00,
2013-03-03 20:24:00,39.7,30.0,29.79,SSE,157,2.0,9.0,68,0.00,,,0.00,Wunderground v.1.15,2013-03-04 02:24:00,
2013-03-03 20:29:00,39.8,29.7,29.78,East,83,2.0,10.0,67,0.00,,,0.00,Wunderground v.1.15,2013-03-04 02:29:00,
2013-03-03 20:34:00,39.8,29.7,29.78,East,79,6.0,7.0,67,0.00,,,0.00,Wunderground v.1.15,2013-03-04 02:34:00,
2013-03-03 20:39:00,39.9,29.8,29.78,SE,136,3.0,10.0,67,0.00,,,0.00,Wunderground v.1.15,2013-03-04 02:39:00,
2013-03-03 20:44:00,39.9,29.8,29.77,SE,129,2.0,10.0,67,0.00,,,0.00,Wunderground v.1.15,2013-03-04 02:44:00,
2013-03-03 20:49:00,39.9,29.8,29.77,East,91,5.0,10.0,67,0.00,,,0.00,Wunderground v.1.15,2013-03-04 02:49:00,
2013-03-03 20:54:00,40.0,29.9,29.77,ENE,58,9.0,10.0,67,0.00,,,0.00,Wunderground v.1.15,2013-03-04 02:54:00,
2013-03-03 20:59:00,40.1,30.0,29.77,SSE,156,1.0,11.0,67,0.00,,,0.00,Wunderground v.1.15,2013-03-04 02:59:00,
2013-03-03 21:04:00,40.1,29.6,29.77,South,171,3.0,6.0,66,0.00,,,0.00,Wunderground v.1.15,2013-03-04 03:04:00,
2013-03-03 21:09:00,40.2,29.7,29.77,ESE,102,4.0,9.0,66,0.00,,,0.00,Wunderground v.1.15,2013-03-04 03:09:00,
2013-03-03 21:14:00,40.3,29.8,29.77,East,93,3.0,7.0,66,0.00,,,0.00,Wunderground v.1.15,2013-03-04 03:14:00,
2013-03-03 21:19:00,40.4,29.9,29.77,East,97,1.0,11.0,66,0.00,,,0.00,Wunderground v.1.15,2013-03-04 03:19:00,
2013-03-03 21:24:00,40.4,29.9,29.77,East,86,6.0,6.0,66,0.00,,,0.00,Wunderground v.1.15,2013-03-04 03:24:00,
2013-03-03 21:29:00,40.4,29.9,29.76,ESE,108,2.0,9.0,66,0.00,,,0.00,Wunderground v.1.15,2013-03-04 03:29:00,
2013-03-03 21:34:00,40.4,29.9,29.76,ESE,115,3.0,10.0,66,0.00,,,0.00,Wunderground v.1.15,2013-03-04 03:34:00,
2013-03-03 21:39:00,40.3,29.8,29.76,ENE,63,2.0,10.0,66,0.00,,,0.00,Wunderground v.1.15,2013-03-04 03:39:00,
2013-03-03 21:44:00,40.3,29.8,29.76,East,97,1.0,9.0,66,0.00,,,0.00,Wunderground v.1.15,2013-03-04 03:44:00,
2013-03-03 21:49:00,40.2,29.7,29.76,SE,129,4.0,9.0,66,0.00,,,0.00,Wunderground v.1.15,2013-03-04 03:49:00,
2013-03-03 21:54:00,40.2,30.1,29.75,ENE,66,2.0,7.0,67,0.00,,,0.00,Wunderground v.1.15,2013-03-04 03:54:00,
2013-03-03 21:59:00,40.2,30.1,29.75,ESE,106,2.0,7.0,67,0.00,,,0.00,Wunderground v.1.15,2013-03-04 03:59:00,
2013-03-03 22:04:00,40.2,30.1,29.75,East,94,3.0,8.0,67,0.00,,,0.00,Wunderground v.1.15,2013-03-04 04:04:00,
2013-03-03 22:09:00,40.2,30.1,29.75,East,93,3.0,8.0,67,0.00,,,0.00,Wunderground v.1.15,2013-03-04 04:09:00,
2013-03-03 22:14:00,40.2,30.1,29.75,SE,130,2.0,7.0,67,0.00,,,0.00,Wunderground v.1.15,2013-03-04 04:14:00,
2013-03-03 22:19:00,40.2,30.1,29.75,ESE,108,3.0,7.0,67,0.00,,,0.00,Wunderground v.1.15,2013-03-04 04:19:00,
2013-03-03 22:24:00,40.2,30.1,29.75,SE,144,2.0,7.0,67,0.00,,,0.00,Wunderground v.1.15,2013-03-04 04:24:00,
2013-03-03 22:29:00,40.2,30.1,29.75,SSE,161,3.0,7.0,67,0.00,,,0.00,Wunderground v.1.15,2013-03-04 04:29:00,
2013-03-03 22:34:00,40.2,30.1,29.75,East,82,3.0,5.0,67,0.00,,,0.00,Wunderground v.1.15,2013-03-04 04:34:00,
2013-03-03 22:39:00,40.3,30.2,29.75,East,84,3.0,7.0,67,0.00,,,0.00,Wunderground v.1.15,2013-03-04 04:39:00,
2013-03-03 22:44:00,40.3,30.6,29.74,SE,135,1.0,8.0,68,0.00,,,0.00,Wunderground v.1.15,2013-03-04 04:44:00,
2013-03-03 22:49:00,40.3,30.6,29.74,ESE,103,4.0,8.0,68,0.00,,,0.00,Wunderground v.1.15,2013-03-04 04:49:00,
2013-03-03 22:54:00,40.3,30.6,29.73,East,90,3.0,9.0,68,0.00,,,0.00,Wunderground v.1.15,2013-03-04 04:54:00,
2013-03-03 22:59:00,40.3,30.6,29.73,ENE,78,3.0,9.0,68,0.00,,,0.00,Wunderground v.1.15,2013-03-04 04:59:00,
2013-03-03 23:00:00,40.3,30.6,29.73,East,98,3.0,9.0,68,0.00,,,0.00,Wunderground v.1.15,2013-03-04 05:00:00,
2013-03-03 23:05:00,40.4,30.7,29.72,ESE,106,2.0,7.0,68,0.00,,,0.00,Wunderground v.1.15,2013-03-04 05:05:00,
2013-03-03 23:10:00,40.4,30.7,29.72,South,171,3.0,4.0,68,0.00,,,0.00,Wunderground v.1.15,2013-03-04 05:10:00,
2013-03-03 23:15:00,40.6,30.9,29.72,East,99,8.0,9.0,68,0.00,,,0.00,Wunderground v.1.15,2013-03-04 05:15:00,
2013-03-03 23:20:00,40.9,30.8,29.72,ESE,111,5.0,5.0,67,0.00,,,0.00,Wunderground v.1.15,2013-03-04 05:20:00,
2013-03-03 23:25:00,41.0,30.9,29.72,SSE,147,1.0,7.0,67,0.00,,,0.00,Wunderground v.1.15,2013-03-04 05:25:00,
2013-03-03 23:30:00,41.2,31.1,29.72,East,83,3.0,5.0,67,0.00,,,0.00,Wunderground v.1.15,2013-03-04 05:30:00,
2013-03-03 23:35:00,41.3,31.2,29.71,SE,134,1.0,5.0,67,0.00,,,0.00,Wunderground v.1.15,2013-03-04 05:35:00,
2013-03-03 23:40:00,41.5,31.0,29.70,SE,126,3.0,9.0,66,0.00,,,0.00,Wunderground v.1.15,2013-03-04 05:40:00,
2013-03-03 23:45:00,41.8,31.3,29.70,SE,134,4.0,9.0,66,0.00,,,0.00,Wunderground v.1.15,2013-03-04 05:45:00,
2013-03-03 23:50:00,41.9,31.0,29.70,SSE,164,6.0,6.0,65,0.00,,,0.00,Wunderground v.1.15,2013-03-04 05:50:00,
2013-03-03 23:55:00,41.9,31.0,29.70,SE,129,3.0,8.0,65,0.00,,,0.00,Wunderground v.1.15,2013-03-04 05:55:00,